This is the latest recevied weather packets stored in our database for station/object N4JTC. If no packets are shown the sender has not sent any weather packets the latest 10 day(s).
| Time | Temp. | Humidity | Pressure | Rain* | Wind** | Luminosity | Snow |
|---|---|---|---|---|---|---|---|
| 1778004004 | 26.11° C | 61% | 1016.8 hPa | 0 mm | - | 349 W/m² | - |
| 1778003703 | 26.11° C | 61% | 1016.7 hPa | 0 mm | - | 334 W/m² | - |
| 1778003403 | 27.22° C | 60% | 1016.7 hPa | 0 mm | - | 295 W/m² | - |
| 1778003103 | 27.22° C | 60% | 1017 hPa | 0 mm | - | 459 W/m² | - |
| 1778002503 | 26.11° C | 60% | 1016.8 hPa | 0 mm | - | 382 W/m² | - |
| 1778002203 | 26.67° C | 60% | 1017 hPa | 0 mm | - | 348 W/m² | - |
| 1778001903 | 26.67° C | 62% | 1016.9 hPa | 0 mm | - | 451 W/m² | - |
| 1778001603 | 26.67° C | 60% | 1017 hPa | 0 mm | - | 831 W/m² | - |
| 1778001303 | 26.67° C | 61% | 1017 hPa | 0 mm | - | 844 W/m² | - |
| 1778001003 | 27.22° C | 60% | 1017 hPa | 0 mm | - | 759 W/m² | - |
| 1778000702 | 26.67° C | 62% | 1016.9 hPa | 0 mm | - | 651 W/m² | - |
| 1778000403 | 26.11° C | 62% | 1016.9 hPa | 0 mm | - | 457 W/m² | - |
| 1778000102 | 26.11° C | 61% | 1017.2 hPa | 0 mm | - | 420 W/m² | - |
| 1777999803 | 26.11° C | 60% | 1017.2 hPa | 0 mm | - | 362 W/m² | - |
| 1777999503 | 26.67° C | 61% | 1016.9 hPa | 0 mm | - | 442 W/m² | - |
| 1777998902 | 26.11° C | 59% | 1016.8 hPa | 0 mm | - | 472 W/m² | - |
| 1777998603 | 26.11° C | 60% | 1017 hPa | 0 mm | - | 391 W/m² | - |
| 1777998303 | 27.22° C | 57% | 1016.6 hPa | 0 mm | - | 362 W/m² | - |
| 1777998004 | 26.67° C | 58% | 1016.9 hPa | 0 mm | - | 856 W/m² | - |
| 1777997703 | 27.22° C | 57% | 1016.8 hPa | 0 mm | - | 949 W/m² | - |
| 1777997403 | 26.67° C | 57% | 1016.9 hPa | 0 mm | - | 930 W/m² | - |
| 1777997103 | 26.67° C | 58% | 1017 hPa | 0 mm | - | 939 W/m² | - |
| 1777996803 | 26.67° C | 58% | 1016.9 hPa | 0 mm | - | 914 W/m² | - |
| 1777996503 | 26.11° C | 59% | 1017.1 hPa | 0 mm | - | 865 W/m² | - |
| 1777995903 | 25.56° C | 59% | 1017.1 hPa | 0 mm | - | 942 W/m² | - |
* Rain latest hour (hover to see other rain measurements)
** Current wind speed in m/s (hover to see current wind gust speed)